Regional Weather Roundup
Issued by NWS

Home | Current Version | Previous Version | Graphics & Text | Print | Product List | Glossary On
Versions: 1 2 3 4 5 6 7 8 9 10 11 12 13 14 15 16 17 18 19 20 21 22 23 24 25 26 27 28 29 30 31 32 33 34 35 36 37 38 39 40 41 42 43 44 45 46 47 48 49 50
874
ASUS43 KOAX 270502
RWRNE

WEATHER ROUNDUP FOR NEBRASKA
NATIONAL WEATHER SERVICE OMAHA NE
1200 AM CDT WED JUL 27 2016

NOTES: SATELLITE DATA IS BEING USED TO AUGMENT CLOUD COVER ABOVE
       12000 FEET.
       "FAIR" INDICATES FEW OR NO CLOUDS BELOW 12,000 FEET WITH NO
       SIGNIFICANT WEATHER AND/OR OBSTRUCTIONS TO VISIBILITY.

  * THESE STATIONS DO NOT REPORT WEATHER SUCH AS RAIN...SNOW OR FOG.

NEZ001>004-019>022-054>056-270600-
NEBRASKA PANHANDLE

CITY           SKY/WX    TMP DP  RH WIND       PRES   REMARKS
SCOTTSBLUFF    PTCLDY    67  57  70 N8        30.04F
ALLIANCE       PTCLDY    65  59  81 MISG      30.06F
CHADRON        CLOUDY    66  60  81 SW6       30.06R
SIDNEY         CLOUDY    72  45  37 SE8       30.13R
$$

NEZ057>060-069>072-079>082-270600-
SOUTHWEST NEBRASKA

CITY           SKY/WX    TMP DP  RH WIND       PRES   REMARKS
NORTH PLATTE   CLOUDY    74  66  76 NE9       30.09R
IMPERIAL       CLEAR     72  56  57 S5        30.06R
LEXINGTON      CLOUDY    75  66  73 SE12      30.03F
MCCOOK         PTCLDY    80  64  58 S7        30.04R
OGALLALA       PTCLDY    71  65  81 W5        30.06R
$$

NEZ005>010-023>029-035>040-094-270600-
NORTH CENTRAL NEBRASKA

CITY           SKY/WX    TMP DP  RH WIND       PRES   REMARKS
VALENTINE      RAIN      64  32  30 MISG      30.07F
AINSWORTH      TSTM      62  62 100 S6        30.19R
BROKEN BOW     TSTM      73  68  84 S12       30.01F
O`NEILL        CLOUDY    75  66  73 E8        30.03S THUNDER
ORD            CLOUDY    75  65  70 SE13      29.99F
THEDFORD       TSTM      65  60  82 NE14      30.10F
$$

NEZ041-046>049-061>064-073>077-083>087-270600-
SOUTH CENTRAL NEBRASKA

CITY           SKY/WX    TMP DP  RH WIND       PRES   REMARKS
GRAND ISLAND   PTCLDY    72  67  84 SE8       30.05F
AURORA         CLEAR     69  67  93 SE5       30.04F
HASTINGS       PTCLDY    74  64  71 S7        30.04F
HEBRON         PTCLDY    71  66  83 CALM      30.04R
HOLDREGE       MOCLDY    71  66  82 SE7       30.05F
KEARNEY *      PTCLDY    73  64  73 SE9       30.05F
YORK           PTCLDY    72  66  83 S8        30.04S
$$

NEZ011>018-030>034-042>045-270600-
NORTHEAST NEBRASKA

CITY           SKY/WX    TMP DP  RH WIND       PRES   REMARKS
NORFOLK        CLOUDY    71  63  75 S8        30.02F
ALBION         CLOUDY    70  65  84 SE5       30.04R
BLAIR          CLEAR     72  66  81 SE6       30.02F
FREMONT        CLEAR     72  66  81 SE3       30.02F
TEKAMAH        PTCLDY    68  65  90 S6        30.00F
WAYNE          MOCLDY    69  67  93 S6        30.02F
$$

NEZ050>053-065>068-078-088>093-270600-
SOUTHEAST NEBRASKA

CITY           SKY/WX    TMP DP  RH WIND       PRES   REMARKS
LINCOLN        CLEAR     76  64  66 CALM      30.03S
OMAHA EPPLEY   CLEAR     76  67  73 SE7       30.01F
BEATRICE       CLEAR     72  66  82 CALM      30.02F
FALLS CITY     CLEAR     72  68  87 CALM      30.01R
NEBRASKA CITY  CLEAR     72  67  84 CALM      30.02S
PLATTSMOUTH    CLEAR     73  68  84 SE3       30.02F
$$

NEZ044-045-051>053-067-270600-
OMAHA AREA

CITY           SKY/WX    TMP DP  RH WIND       PRES   REMARKS
OMAHA EPPLEY   CLEAR     76  67  73 SE7       30.01F
BLAIR          CLEAR     72  66  81 SE6       30.02F
FREMONT        CLEAR     72  66  81 SE3       30.02F
MILLARD        CLEAR     72  69  90 CALM      30.01F
OFFUTT AFB     CLEAR     67  67 100 E5        30.01F
PLATTSMOUTH    CLEAR     73  68  84 SE3       30.02F
WAHOO          FAIR      68  65  90 SE3       30.02F
$$




USA.gov is the U.S. government's official web portal to all federal, state and local government web resources and services.